Change the Weather History Date:

Friday, January 18, 2013

  Actual Average Record
Temperature  
Mean Temperature 45 °F 46 °F  
Max Temperature 55 °F 56 °F 75 °F (1974)
Min Temperature 34 °F 35 °F 10 °F (1977)
Degree Days  
Heating Degree Days 20 19  
Month to date heating degree days 156 354  
Since 1 July heating degree days 970 1258  
Cooling Degree Days 0 0  
Month to date cooling degree days 19 0  
Year to date cooling degree days 19 0  
Moisture  
Dew Point 29 °F    
Average Humidity 61    
Maximum Humidity 85    
Minimum Humidity 24    
Precipitation  
Precipitation 0.00 in 0.12 in 1.07 in (1960)
Month to date precipitation 0.38 2.15  
Year to date precipitation 0.38 2.15  
Sea Level Pressure  
Sea Level Pressure 30.39 in    
Wind  
Wind Speed 8 mph (NNE)    
Max Wind Speed 21 mph    
Max Gust Speed 29 mph    
Visibility 10 miles    
Events      
T = Trace of Precipitation, MM = Missing Value Source: NWS Daily Summary

Daily Weather History Graph

Daily Weather History Graph

Search for Another Location

Airport or City:

Trip Planner

Search our weather history database for the weather conditions in past years. The results will help you decide how hot, cold, wet, or windy it might be!

Date:

Astronomy

Jan. 18, 2013 Rise Set
Actual Time 7:26 AM EST 5:41 PM EST
Civil Twilight 6:59 AM EST 6:08 PM EST
Nautical Twilight 6:29 AM EST 6:38 PM EST
Astronomical Twilight 5:59 AM EST 7:08 PM EST
Moon 11:28 AM EST (1/18) 12:07 AM EST (1/18)
Length of Visible Light 11h 08m
Length of Day
10h 15m
Waxing Crescent, 47% of the Moon is Illuminated
Jan 18
Waxing Crescent
Jan 18
First Quarter
Jan 26
Full
Feb 3
Last Quarter
Feb 10
New

Hourly Weather History & Observations

Time (EST) Temp. Windchill Dew Point Humidity Pressure Visibility Wind Dir Wind Speed Gust Speed Precip Events Conditions
12:30 AM 44.6 °F 37.4 °F 37.4 °F 76% 30.16 in 10.0 mi North 16.1 mph 25.3 mph N/A   Scattered Clouds
12:42 AM 44.6 °F 38.4 °F 37.4 °F 76% 30.17 in 10.0 mi North 12.7 mph 23.0 mph N/A   Mostly Cloudy
12:53 AM 45.0 °F 38.9 °F 37.9 °F 76% 30.18 in 10.0 mi North 12.7 mph 17.3 mph N/A   Mostly Cloudy
1:25 AM 42.8 °F 37.0 °F 37.4 °F 81% 30.21 in 10.0 mi North 10.4 mph 19.6 mph N/A   Scattered Clouds
1:53 AM 43.0 °F 36.4 °F 37.0 °F 80% 30.24 in 10.0 mi North 12.7 mph - N/A   Mostly Cloudy
2:12 AM 42.8 °F 35.1 °F 35.6 °F 76% 30.24 in 10.0 mi NNE 16.1 mph 23.0 mph N/A   Scattered Clouds
2:53 AM 42.1 °F 35.7 °F 36.0 °F 79% 30.27 in 10.0 mi NNE 11.5 mph 19.6 mph N/A   Clear
3:53 AM 41.0 °F 34.7 °F 35.1 °F 79% 30.28 in 10.0 mi NNE 10.4 mph - N/A   Clear
4:53 AM 39.0 °F 34.8 °F 35.1 °F 86% 30.31 in 10.0 mi North 5.8 mph - N/A   Partly Cloudy
5:53 AM 37.9 °F 35.5 °F 34.0 °F 86% 30.33 in 10.0 mi North 3.5 mph - N/A   Clear
6:53 AM 37.0 °F - 34.0 °F 89% 30.37 in 10.0 mi Calm Calm - N/A   Clear
7:53 AM 37.0 °F 33.3 °F 34.0 °F 89% 30.40 in 10.0 mi North 4.6 mph - N/A   Clear
8:53 AM 41.0 °F 35.8 °F 34.0 °F 76% 30.44 in 10.0 mi NNE 8.1 mph - N/A   Clear
9:53 AM 44.1 °F 39.0 °F 30.9 °F 60% 30.49 in 10.0 mi NE 9.2 mph 17.3 mph N/A   Clear
10:53 AM 46.9 °F - 27.0 °F 46% 30.50 in 10.0 mi NNE 12.7 mph - N/A   Clear
11:53 AM 50.0 °F - 23.0 °F 35% 30.48 in 10.0 mi NE 16.1 mph 23.0 mph N/A   Clear
12:53 PM 52.0 °F - 19.0 °F 27% 30.45 in 10.0 mi NE 17.3 mph 27.6 mph N/A   Clear
1:53 PM 54.0 °F - 21.0 °F 28% 30.44 in 10.0 mi NNE 11.5 mph 19.6 mph N/A   Clear
2:53 PM 55.0 °F - 19.9 °F 25% 30.44 in 10.0 mi NNE 11.5 mph - N/A   Clear
3:53 PM 55.0 °F - 19.9 °F 25% 30.45 in 10.0 mi NNE 6.9 mph - N/A   Clear
4:53 PM 53.1 °F - 21.0 °F 29% 30.47 in 10.0 mi North 8.1 mph - N/A   Clear
5:53 PM 48.0 °F - 21.9 °F 36% 30.48 in 10.0 mi NNE 4.6 mph - N/A   Clear
6:53 PM 45.0 °F 43.5 °F 25.0 °F 46% 30.50 in 10.0 mi NE 3.5 mph - N/A   Clear
7:53 PM 43.0 °F 40.3 °F 26.1 °F 51% 30.51 in 10.0 mi NE 4.6 mph - N/A   Clear
8:53 PM 42.1 °F 39.2 °F 26.1 °F 53% 30.50 in 10.0 mi NE 4.6 mph - N/A   Clear
9:53 PM 41.0 °F 38.0 °F 26.1 °F 55% 30.50 in 10.0 mi NE 4.6 mph - N/A   Clear
10:53 PM 37.9 °F - 26.1 °F 62% 30.51 in 10.0 mi Calm Calm - N/A   Clear
11:53 PM 36.0 °F 33.3 °F 27.0 °F 70% 30.51 in 10.0 mi NE 3.5 mph - N/A   Clear